This demonstration page uses our WeatherBlox Daily Observations layout. Learn more.

Left ArrowRight Arrow

Hourly Observations for June 21, 2019

Temp ( °F °C ) Dew Point ( °F °C ) Humidity (%) Winds ( mph kmh ) Pressure ( in mb ) Visibility ( mi km ) Precip ( " mm )
6:30 am 06:30 Partly Cloudy with Mist and Fog 55 13 55 13 100 100 Calm 29.98 1015 3 5 N/A
6:47 am 06:47 Partly Cloudy with Mist and Fog 57 14 55 13 94 94 Calm 29.99 1016 3 5 N/A
7:49 am 07:49 Partly Cloudy with Mist and Fog 59 15 57 14 94 94 NNW 3 6 30.02 1016 3 5 N/A
8:18 am 08:18 Partly Cloudy with Mist and Fog 61 16 57 14 88 88 N 3 6 30.01 1016 5 8 N/A
8:32 am 08:32 Mostly Cloudy with Mist and Fog 61 16 57 14 88 88 NNE 3 6 30.02 1017 5 8 N/A
8:51 am 08:51 Mostly Cloudy with Mist and Fog 61 16 57 14 88 88 NE 3 6 30.03 1017 5 8 N/A
9:53 am 09:53 Mostly Cloudy with Mist and Fog 61 16 57 14 88 88 NNE 3 6 30.02 1017 5 8 N/A
10:45 am 10:45 Mostly Cloudy with Mist and Fog 64 18 59 15 83 83 E 5 7 30.02 1017 5 8 N/A
10:55 am 10:55 Partly Cloudy 64 18 59 15 83 83 Calm 30.02 1017 7 11 N/A
11:45 am 11:45 Partly Cloudy 64 18 59 15 83 83 ESE 3 6 30.02 1017 10 16 N/A
12:48 pm 12:48 Partly Cloudy 72 22 59 15 65 65 ESE 5 7 30.03 1017 10 16 N/A
1:47 pm 13:47 Partly Cloudy 73 23 59 15 61 61 ESE 6 9 30.00 1016 10 16 N/A
2:59 pm 14:59 Mostly Cloudy 75 24 57 14 54 54 SSE 6 9 29.98 1015 10 16 N/A
3:49 pm 15:49 Mostly Cloudy 75 24 59 15 57 57 S 3 6 29.98 1015 10 16 N/A
4:59 pm 16:59 Cloudy 75 24 59 15 57 57 SSW 6 9 29.97 1015 10 16 N/A
5:46 pm 17:46 Cloudy 73 23 61 16 65 65 SW 6 9 29.98 1015 10 16 N/A
6:07 pm 18:07 Cloudy with Light Rain 73 23 61 16 65 65 WNW 9 15 30.04 1017 7 11 N/A
6:47 pm 18:47 Cloudy with Light Rain 70 21 63 17 78 78 WNW 5 7 30.02 1017 7 11 N/A
7:28 pm 19:28 Cloudy with Light Rain 70 21 64 18 83 83 SSE 6 9 29.95 1014 10 16 N/A
7:45 pm 19:45 Cloudy with Light Rain 68 20 64 18 88 88 ESE 9 15 29.92 1013 7 11 N/A
8:34 pm 20:34 Mostly Cloudy with Light Rain 68 20 63 17 83 83 SE 17 28 29.85 1011 7 11 N/A
8:45 pm 20:45 Mostly Cloudy 68 20 63 17 83 83 E 5 7 29.89 1012 10 16 N/A
9:35 pm 21:35 Partly Cloudy 68 20 63 17 83 83 SSE 3 6 29.92 1013 10 16 N/A
9:46 pm 21:46 Partly Cloudy 66 19 64 18 94 94 SE 3 6 29.93 1013 10 16 N/A

Powered by AerisWeather